| time (UTC) | temp C | wind direction | speed KPH | gust KPH | rain 1hr cm | rain 24hr cm | rain mn cm | humidity % | barometer mb |
| 20260901125420 | 16 | 239 | 6.4 | 12.9 | 0.00 | 0.00 | 0.00 | 84 | 1014.0 |
| 20260901124922 | 16 | 208 | 3.2 | 16.1 | 0.00 | 0.00 | 0.00 | 83 | 1013.9 |
| 20260901124428 | 16 | 230 | 8.0 | 16.1 | 0.00 | 0.00 | 0.00 | 83 | 1014.0 |
| 20260901123929 | 16 | 207 | 4.8 | 12.9 | 0.00 | 0.00 | 0.00 | 83 | 1014.0 |
| 20260901123433 | 16 | 215 | 6.4 | 12.9 | 0.00 | 0.00 | 0.00 | 83 | 1014.0 |
| 20260901122935 | 16 | 215 | 6.4 | 17.7 | 0.00 | 0.00 | 0.00 | 83 | 1014.0 |
| 20260901122420 | 16 | 226 | 6.4 | 17.7 | 0.00 | 0.00 | 0.00 | 83 | 1014.0 |
| 20260901121926 | 16 | 219 | 8.0 | 17.7 | 0.00 | 0.00 | 0.00 | 83 | 1013.9 |
| 20260901121433 | 16 | 228 | 6.4 | 16.1 | 0.00 | 0.00 | 0.00 | 83 | 1013.8 |
| 20260901120919 | 16 | 206 | 8.0 | 14.5 | 0.00 | 0.00 | 0.00 | 82 | 1013.7 |
| 20260901120424 | 16 | 261 | 4.8 | 16.1 | 0.00 | 0.00 | 0.00 | 82 | 1013.7 |
| 20260901115946 | 16 | 171 | 6.4 | 12.9 | 0.00 | 0.00 | 0.00 | 82 | 1013.8 |
| 20260901115431 | 16 | 203 | 4.8 | 12.9 | 0.00 | 0.00 | 0.00 | 82 | 1013.9 |
| 20260901114934 | 16 | 218 | 6.4 | 14.5 | 0.00 | 0.00 | 0.00 | 82 | 1013.9 |
| 20260901114420 | 16 | 268 | 6.4 | 14.5 | 0.00 | 0.00 | 0.00 | 82 | 1013.9 |
| 20260901113924 | 16 | 292 | 8.0 | 11.3 | 0.00 | 0.00 | 0.00 | 82 | 1013.8 |
| 20260901113426 | 16 | 227 | 4.8 | 9.7 | 0.00 | 0.00 | 0.00 | 82 | 1013.8 |
| 20260901112926 | 16 | 268 | 6.4 | 14.5 | 0.00 | 0.00 | 0.00 | 82 | 1013.9 |
| 20260901112432 | 16 | 242 | 8.0 | 14.5 | 0.00 | 0.00 | 0.00 | 82 | 1014.0 |
| 20260901111935 | 16 | 247 | 6.4 | 17.7 | 0.00 | 0.00 | 0.00 | 82 | 1014.0 |
| 20260901111420 | 16 | 163 | 12.9 | 17.7 | 0.00 | 0.00 | 0.00 | 82 | 1014.0 |
| 20260901110945 | 16 | 222 | 4.8 | 14.5 | 0.00 | 0.00 | 0.00 | 82 | 1014.0 |
| 20260901110427 | 16 | 249 | 9.7 | 16.1 | 0.00 | 0.00 | 0.00 | 81 | 1014.0 |
| 20260901105955 | 16 | 222 | 9.7 | 16.1 | 0.00 | 0.00 | 0.00 | 81 | 1014.0 |
| 20260901105419 | 16 | 276 | 8.0 | 16.1 | 0.00 | 0.00 | 0.00 | 81 | 1014.0 |
| 20260901104923 | 16 | 301 | 4.8 | 16.1 | 0.00 | 0.00 | 0.00 | 81 | 1014.0 |
| 20260901104455 | 16 | 216 | 6.4 | 16.1 | 0.00 | 0.00 | 0.00 | 81 | 1014.0 |
| 20260901103920 | 16 | 285 | 8.0 | 17.7 | 0.00 | 0.00 | 0.00 | 81 | 1014.0 |
| 20260901103425 | 16 | 215 | 8.0 | 17.7 | 0.00 | 0.00 | 0.00 | 81 | 1013.9 |
| 20260901102959 | 16 | 219 | 4.8 | 16.1 | 0.00 | 0.00 | 0.00 | 81 | 1014.0 |
| 20260901102438 | 16 | 213 | 8.0 | 19.3 | 0.00 | 0.00 | 0.00 | 81 | 1013.9 |
| 20260901101922 | 16 | 207 | 8.0 | 19.3 | 0.00 | 0.00 | 0.00 | 81 | 1013.9 |
| 20260901101458 | 16 | 187 | 8.0 | 16.1 | 0.00 | 0.00 | 0.00 | 81 | 1013.8 |
| 20260901100942 | 16 | 182 | 8.0 | 17.7 | 0.00 | 0.00 | 0.00 | 81 | 1013.8 |
| 20260901100506 | 16 | 205 | 9.7 | 19.3 | 0.00 | 0.00 | 0.00 | 81 | 1013.8 |
| 20260901095957 | 16 | 217 | 9.7 | 19.3 | 0.00 | 0.00 | 0.00 | 81 | 1013.8 |
| 20260901095437 | 16 | 228 | 9.7 | 16.1 | 0.00 | 0.00 | 0.00 | 81 | 1013.8 |
| 20260901094940 | 16 | 203 | 8.0 | 17.7 | 0.00 | 0.00 | 0.00 | 81 | 1013.8 |
| 20260901094423 | 16 | 203 | 6.4 | 16.1 | 0.00 | 0.00 | 0.00 | 80 | 1013.8 |
| 20260901093931 | 16 | 200 | 6.4 | 16.1 | 0.00 | 0.00 | 0.00 | 80 | 1013.8 |
| 20260901093436 | 16 | 220 | 6.4 | 16.1 | 0.00 | 0.00 | 0.00 | 80 | 1013.8 |
| 20260901092938 | 16 | 230 | 9.7 | 16.1 | 0.00 | 0.00 | 0.00 | 80 | 1013.8 |
| 20260901092430 | 16 | 212 | 4.8 | 14.5 | 0.00 | 0.00 | 0.00 | 80 | 1013.8 |
| 20260901091935 | 16 | 198 | 6.4 | 14.5 | 0.00 | 0.00 | 0.00 | 80 | 1013.8 |
| 20260901091422 | 16 | 238 | 6.4 | 16.1 | 0.00 | 0.00 | 0.00 | 79 | 1013.8 |
| 20260901090955 | 16 | 224 | 8.0 | 14.5 | 0.00 | 0.00 | 0.00 | 79 | 1013.8 |
| 20260901090437 | 16 | 225 | 9.7 | 16.1 | 0.00 | 0.00 | 0.00 | 79 | 1013.9 |
| 20260901085921 | 16 | 239 | 6.4 | 16.1 | 0.00 | 0.00 | 0.00 | 79 | 1013.8 |
| 20260901085448 | 16 | 219 | 8.0 | 17.7 | 0.00 | 0.00 | 0.00 | 79 | 1013.9 |
| 20260901084930 | 16 | 222 | 9.7 | 19.3 | 0.00 | 0.00 | 0.00 | 79 | 1013.8 |
| 20260901084434 | 16 | 207 | 11.3 | 19.3 | 0.00 | 0.00 | 0.00 | 79 | 1013.8 |
| 20260901083949 | 16 | 207 | 9.7 | 19.3 | 0.00 | 0.00 | 0.00 | 79 | 1013.7 |
| 20260901083430 | 16 | 221 | 11.3 | 19.3 | 0.00 | 0.00 | 0.00 | 79 | 1013.7 |
| 20260901082935 | 16 | 195 | 6.4 | 14.5 | 0.00 | 0.00 | 0.00 | 78 | 1013.9 |
| 20260901082421 | 16 | 199 | 8.0 | 14.5 | 0.00 | 0.00 | 0.00 | 78 | 1013.8 |
| 20260901081926 | 16 | 217 | 6.4 | 17.7 | 0.00 | 0.00 | 0.00 | 78 | 1013.9 |
| 20260901081426 | 16 | 226 | 9.7 | 19.3 | 0.00 | 0.00 | 0.00 | 78 | 1013.8 |
| 20260901080933 | 16 | 210 | 9.7 | 19.3 | 0.00 | 0.00 | 0.00 | 78 | 1013.7 |
| 20260901080418 | 16 | 226 | 8.0 | 17.7 | 0.00 | 0.00 | 0.00 | 78 | 1013.8 |
| 20260901075922 | 16 | 222 | 6.4 | 12.9 | 0.00 | 0.00 | 0.00 | 78 | 1013.8 |
| 20260901075427 | 16 | 249 | 8.0 | 12.9 | 0.00 | 0.00 | 0.00 | 78 | 1013.7 |
| 20260901074928 | 16 | 227 | 6.4 | 14.5 | 0.00 | 0.00 | 0.00 | 78 | 1013.8 |
| 20260901074435 | 16 | 249 | 4.8 | 17.7 | 0.00 | 0.00 | 0.00 | 78 | 1013.9 |
| 20260901073935 | 16 | 171 | 8.0 | 17.7 | 0.00 | 0.00 | 0.00 | 78 | 1013.8 |
| 20260901073439 | 16 | 224 | 6.4 | 14.5 | 0.00 | 0.00 | 0.00 | 79 | 1013.8 |
| 20260901072940 | 16 | 206 | 8.0 | 16.1 | 0.00 | 0.00 | 0.00 | 79 | 1013.8 |
| 20260901072424 | 16 | 218 | 6.4 | 12.9 | 0.00 | 0.00 | 0.00 | 79 | 1013.8 |
| 20260901071928 | 16 | 216 | 8.0 | 16.1 | 0.00 | 0.00 | 0.00 | 79 | 1013.9 |
| 20260901071434 | 16 | 196 | 9.7 | 17.7 | 0.00 | 0.00 | 0.00 | 79 | 1013.7 |
| 20260901070918 | 16 | 185 | 8.0 | 17.7 | 0.00 | 0.00 | 0.00 | 80 | 1013.8 |
| 20260901070507 | 16 | 221 | 8.0 | 12.9 | 0.00 | 0.00 | 0.00 | 80 | 1013.7 |
| 20260901065924 | 16 | 177 | 4.8 | 16.1 | 0.00 | 0.00 | 0.00 | 80 | 1013.8 |
| 20260901065430 | 16 | 268 | 9.7 | 16.1 | 0.00 | 0.00 | 0.00 | 80 | 1013.7 |
| 20260901064933 | 16 | 268 | 8.0 | 14.5 | 0.00 | 0.00 | 0.00 | 79 | 1013.8 |
| 20260901064438 | 16 | 243 | 8.0 | 14.5 | 0.00 | 0.00 | 0.00 | 79 | 1013.8 |
| 20260901063953 | 16 | 263 | 6.4 | 14.5 | 0.00 | 0.00 | 0.00 | 78 | 1013.8 |
| 20260901063429 | 16 | 216 | 8.0 | 16.1 | 0.00 | 0.00 | 0.00 | 78 | 1013.8 |
| 20260901062932 | 16 | 88 | 8.0 | 16.1 | 0.00 | 0.00 | 0.00 | 77 | 1013.9 |
| 20260901062417 | 16 | 252 | 6.4 | 20.9 | 0.00 | 0.00 | 0.00 | 77 | 1013.9 |
| 20260901061944 | 16 | 215 | 11.3 | 20.9 | 0.00 | 0.00 | 0.00 | 77 | 1013.8 |
| 20260901061429 | 16 | 268 | 9.7 | 22.5 | 0.00 | 0.00 | 0.00 | 77 | 1013.9 |
| 20260901060933 | 16 | 259 | 9.7 | 22.5 | 0.00 | 0.00 | 0.00 | 77 | 1013.9 |
| 20260901060431 | 16 | 235 | 8.0 | 14.5 | 0.00 | 0.00 | 0.00 | 77 | 1014.0 |
| 20260901055934 | 16 | 230 | 8.0 | 22.5 | 0.00 | 0.00 | 0.00 | 77 | 1014.0 |
| 20260901055419 | 16 | 294 | 9.7 | 22.5 | 0.00 | 0.00 | 0.00 | 77 | 1014.0 |
| 20260901054945 | 16 | 237 | 11.3 | 20.9 | 0.00 | 0.00 | 0.00 | 77 | 1014.0 |
| 20260901054430 | 16 | 207 | 8.0 | 17.7 | 0.00 | 0.00 | 0.00 | 77 | 1014.0 |
| 20260901053937 | 16 | 238 | 8.0 | 20.9 | 0.00 | 0.00 | 0.00 | 77 | 1014.1 |
| 20260901053419 | 16 | 193 | 8.0 | 20.9 | 0.00 | 0.00 | 0.00 | 77 | 1014.1 |
| 20260901052919 | 16 | 275 | 9.7 | 20.9 | 0.00 | 0.00 | 0.00 | 77 | 1014.1 |
| 20260901052445 | 16 | 270 | 9.7 | 20.9 | 0.00 | 0.00 | 0.00 | 77 | 1014.2 |
| 20260901051956 | 16 | 306 | 8.0 | 19.3 | 0.00 | 0.00 | 0.00 | 77 | 1014.1 |
| 20260901051419 | 16 | 272 | 8.0 | 12.9 | 0.00 | 0.00 | 0.00 | 77 | 1014.2 |
| 20260901050925 | 16 | 292 | 6.4 | 25.7 | 0.00 | 0.00 | 0.00 | 76 | 1014.2 |
| 20260901050432 | 16 | 242 | 8.0 | 25.7 | 0.00 | 0.00 | 0.00 | 76 | 1014.1 |
| 20260901045931 | 16 | 288 | 8.0 | 16.1 | 0.00 | 0.00 | 0.00 | 76 | 1014.1 |
| 20260901045436 | 16 | 280 | 8.0 | 16.1 | 0.00 | 0.00 | 0.00 | 76 | 1014.0 |
| 20260901044921 | 16 | 294 | 6.4 | 16.1 | 0.00 | 0.00 | 0.00 | 76 | 1014.0 |
| 20260901044425 | 16 | 238 | 8.0 | 16.1 | 0.00 | 0.00 | 0.00 | 76 | 1014.0 |
| 20260901043932 | 16 | 313 | 6.4 | 12.9 | 0.00 | 0.00 | 0.00 | 75 | 1014.0 |
| 20260901043434 | 16 | 280 | 6.4 | 12.9 | 0.00 | 0.00 | 0.00 | 75 | 1013.9 |
| 20260901042937 | 16 | 249 | 6.4 | 17.7 | 0.00 | 0.00 | 0.00 | 75 | 1013.9 |
| 20260901042419 | 16 | 222 | 11.3 | 17.7 | 0.00 | 0.00 | 0.00 | 75 | 1014.0 |
| 20260901041918 | 16 | 249 | 6.4 | 22.5 | 0.00 | 0.00 | 0.00 | 75 | 1014.0 |
| 20260901041432 | 16 | 280 | 6.4 | 17.7 | 0.00 | 0.00 | 0.00 | 75 | 1013.9 |
| 20260901040947 | 16 | 228 | 4.8 | 12.9 | 0.00 | 0.00 | 0.00 | 75 | 1013.9 |
| 20260901040430 | 16 | 251 | 4.8 | 16.1 | 0.00 | 0.00 | 0.00 | 75 | 1013.8 |
| 20260901035935 | 16 | 308 | 8.0 | 16.1 | 0.00 | 0.00 | 0.00 | 75 | 1013.8 |
| 20260901035418 | 16 | 276 | 8.0 | 16.1 | 0.00 | 0.00 | 0.00 | 76 | 1013.8 |
| 20260901034936 | 16 | 222 | 9.7 | 27.4 | 0.00 | 0.00 | 0.00 | 76 | 1013.8 |
| 20260901034444 | 16 | 261 | 9.7 | 27.4 | 0.00 | 0.00 | 0.00 | 76 | 1013.7 |
| 20260901033956 | 16 | 228 | 9.7 | 19.3 | 0.00 | 0.00 | 0.00 | 76 | 1013.5 |
| 20260901033418 | 16 | 239 | 8.0 | 20.9 | 0.00 | 0.00 | 0.00 | 76 | 1013.6 |
| 20260901032922 | 16 | 295 | 8.0 | 20.9 | 0.00 | 0.00 | 0.00 | 77 | 1013.5 |
| 20260901032441 | 16 | 282 | 8.0 | 17.7 | 0.00 | 0.00 | 0.00 | 78 | 1013.5 |
| 20260901031920 | 16 | 244 | 8.0 | 19.3 | 0.00 | 0.00 | 0.00 | 78 | 1013.4 |
| 20260901031453 | 16 | 248 | 9.7 | 19.3 | 0.00 | 0.00 | 0.00 | 78 | 1013.4 |
| 20260901030917 | 16 | 282 | 6.4 | 19.3 | 0.00 | 0.00 | 0.00 | 78 | 1013.3 |
| 20260901030418 | 16 | 268 | 9.7 | 19.3 | 0.00 | 0.00 | 0.00 | 78 | 1013.2 |
| 20260901025920 | 16 | 263 | 11.3 | 20.9 | 0.00 | 0.00 | 0.00 | 78 | 1013.2 |
| 20260901025445 | 16 | 247 | 9.7 | 20.9 | 0.00 | 0.00 | 0.00 | 78 | 1013.3 |
| 20260901024925 | 16 | 208 | 12.9 | 20.9 | 0.00 | 0.00 | 0.00 | 76 | 1013.3 |
| 20260901024431 | 16 | 249 | 8.0 | 20.9 | 0.00 | 0.00 | 0.00 | 76 | 1013.3 |
| 20260901023936 | 16 | 252 | 4.8 | 16.1 | 0.00 | 0.00 | 0.00 | 75 | 1013.2 |
| 20260901023420 | 16 | 14 | 6.4 | 19.3 | 0.00 | 0.00 | 0.00 | 75 | 1013.2 |
| 20260901022921 | 16 | 313 | 9.7 | 22.5 | 0.00 | 0.00 | 0.00 | 75 | 1013.3 |
| 20260901022449 | 16 | 273 | 8.0 | 25.7 | 0.00 | 0.00 | 0.00 | 76 | 1013.2 |
| 20260901021956 | 16 | 210 | 12.9 | 25.7 | 0.00 | 0.00 | 0.00 | 75 | 1013.2 |
| 20260901021420 | 16 | 257 | 9.7 | 20.9 | 0.00 | 0.00 | 0.00 | 75 | 1013.3 |
| 20260901020955 | 16 | 282 | 11.3 | 19.3 | 0.00 | 0.00 | 0.00 | 74 | 1013.3 |
| 20260901020505 | 16 | 270 | 8.0 | 20.9 | 0.00 | 0.00 | 0.00 | 74 | 1013.2 |
| 20260901015958 | 16 | 264 | 9.7 | 20.9 | 0.00 | 0.00 | 0.00 | 74 | 1013.2 |
| 20260901015452 | 16 | 271 | 8.0 | 20.9 | 0.00 | 0.00 | 0.00 | 74 | 1013.2 |
| 20260901014932 | 16 | 271 | 12.9 | 22.5 | 0.00 | 0.00 | 0.00 | 74 | 1013.3 |
| 20260901014418 | 16 | 225 | 12.9 | 22.5 | 0.00 | 0.00 | 0.00 | 73 | 1013.2 |
| 20260901013923 | 16 | 246 | 11.3 | 20.9 | 0.00 | 0.00 | 0.00 | 73 | 1013.2 |
| 20260901013427 | 17 | 359 | 11.3 | 24.1 | 0.00 | 0.00 | 0.00 | 73 | 1013.2 |
| 20260901012932 | 17 | 120 | 12.9 | 24.1 | 0.00 | 0.00 | 0.00 | 73 | 1013.3 |
| 20260901012437 | 17 | 244 | 11.3 | 17.7 | 0.00 | 0.00 | 0.00 | 73 | 1013.3 |
| 20260901011923 | 17 | 253 | 8.0 | 24.1 | 0.00 | 0.00 | 0.00 | 73 | 1013.2 |
| 20260901011424 | 17 | 273 | 9.7 | 24.1 | 0.00 | 0.00 | 0.00 | 73 | 1013.2 |
| 20260901010930 | 17 | 215 | 6.4 | 24.1 | 0.00 | 0.00 | 0.00 | 73 | 1013.1 |
| 20260901010434 | 17 | 249 | 11.3 | 25.7 | 0.00 | 0.00 | 0.00 | 74 | 1013.1 |
| 20260901005937 | 17 | 285 | 9.7 | 25.7 | 0.00 | 0.00 | 0.00 | 73 | 1013.1 |
| 20260901005453 | 17 | 278 | 4.8 | 20.9 | 0.00 | 0.00 | 0.00 | 74 | 1013.0 |
| 20260901004938 | 17 | 290 | 11.3 | 20.9 | 0.00 | 0.00 | 0.00 | 74 | 1013.2 |
| 20260901004423 | 17 | 212 | 8.0 | 20.9 | 0.00 | 0.00 | 0.00 | 74 | 1013.2 |
| 20260901003925 | 17 | 205 | 8.0 | 20.9 | 0.00 | 0.00 | 0.00 | 74 | 1013.2 |
| 20260901003432 | 17 | 329 | 11.3 | 29.0 | 0.00 | 0.00 | 0.00 | 75 | 1013.2 |
| 20260901002917 | 17 | 271 | 14.5 | 29.0 | 0.00 | 0.00 | 0.00 | 75 | 1013.2 |
| 20260901002422 | 17 | 256 | 11.3 | 25.7 | 0.00 | 0.00 | 0.00 | 75 | 1013.3 |
| 20260901001927 | 17 | 243 | 12.9 | 25.7 | 0.00 | 0.00 | 0.00 | 75 | 1013.2 |
| 20260901001431 | 17 | 209 | 14.5 | 20.9 | 0.00 | 0.00 | 0.00 | 76 | 1013.3 |
| 20260901000937 | 17 | 185 | 11.3 | 32.2 | 0.00 | 0.00 | 0.00 | 76 | 1013.4 |
| 20260901000437 | 17 | 210 | 14.5 | 32.2 | 0.00 | 0.00 | 0.00 | 76 | 1013.3 |
| 20260831235951 | 17 | 252 | 11.3 | 29.0 | 0.00 | 0.00 | 0.00 | 77 | 1013.3 |
| 20260831235434 | 17 | 239 | 11.3 | 29.0 | 0.00 | 0.00 | 0.00 | 77 | 1013.3 |
| 20260831234918 | 17 | 289 | 9.7 | 22.5 | 0.00 | 0.00 | 0.00 | 78 | 1013.5 |
| 20260831234423 | 17 | 273 | 12.9 | 24.1 | 0.00 | 0.00 | 0.00 | 77 | 1013.4 |
| 20260831233928 | 17 | 231 | 6.4 | 19.3 | 0.00 | 0.00 | 0.00 | 77 | 1013.6 |
| 20260831233433 | 17 | 218 | 8.0 | 22.5 | 0.00 | 0.00 | 0.00 | 77 | 1013.5 |
| 20260831232934 | 17 | 238 | 11.3 | 24.1 | 0.00 | 0.00 | 0.00 | 77 | 1013.5 |
| 20260831232451 | 17 | 273 | 16.1 | 24.1 | 0.00 | 0.00 | 0.00 | 77 | 1013.5 |
| 20260831231936 | 17 | 290 | 12.9 | 25.7 | 0.00 | 0.00 | 0.00 | 77 | 1013.4 |
| 20260831231419 | 17 | 280 | 12.9 | 25.7 | 0.00 | 0.00 | 0.00 | 77 | 1013.5 |
| 20260831230929 | 17 | 209 | 11.3 | 24.1 | 0.00 | 0.00 | 0.00 | 77 | 1013.5 |
| 20260831230432 | 17 | 280 | 12.9 | 24.1 | 0.00 | 0.00 | 0.00 | 76 | 1013.6 |
| 20260831225935 | 17 | 276 | 6.4 | 25.7 | 0.00 | 0.00 | 0.00 | 77 | 1013.7 |
| 20260831225421 | 17 | 259 | 12.9 | 25.7 | 0.00 | 0.00 | 0.00 | 76 | 1013.7 |
| 20260831224936 | 17 | 292 | 4.8 | 14.5 | 0.00 | 0.00 | 0.00 | 77 | 1013.8 |
| 20260831224422 | 17 | 99 | 6.4 | 24.1 | 0.00 | 0.00 | 0.00 | 77 | 1013.9 |
| 20260831223925 | 17 | 264 | 11.3 | 27.4 | 0.00 | 0.00 | 0.00 | 77 | 1013.8 |
| 20260831223427 | 17 | 229 | 11.3 | 27.4 | 0.00 | 0.00 | 0.00 | 76 | 1013.8 |
| 20260831222933 | 17 | 287 | 9.7 | 19.3 | 0.00 | 0.00 | 0.00 | 77 | 1013.8 |
| 20260831222437 | 17 | 282 | 8.0 | 19.3 | 0.00 | 0.00 | 0.00 | 78 | 1013.9 |
| 20260831221920 | 17 | 289 | 9.7 | 25.7 | 0.00 | 0.00 | 0.00 | 78 | 1014.0 |
| 20260831221422 | 17 | 261 | 12.9 | 25.7 | 0.00 | 0.00 | 0.00 | 78 | 1013.8 |
| 20260831220927 | 17 | 264 | 11.3 | 25.7 | 0.00 | 0.00 | 0.00 | 78 | 1013.9 |
| 20260831220432 | 17 | 268 | 14.5 | 25.7 | 0.00 | 0.00 | 0.00 | 78 | 1014.0 |
| 20260831215945 | 17 | 277 | 12.9 | 24.1 | 0.00 | 0.00 | 0.00 | 78 | 1014.0 |
| 20260831215432 | 17 | 283 | 14.5 | 24.1 | 0.00 | 0.00 | 0.00 | 78 | 1014.2 |
| 20260831214935 | 17 | 244 | 12.9 | 22.5 | 0.00 | 0.00 | 0.00 | 78 | 1014.3 |
| 20260831214418 | 17 | 282 | 11.3 | 22.5 | 0.00 | 0.00 | 0.00 | 78 | 1014.3 |
| 20260831213942 | 17 | 211 | 14.5 | 22.5 | 0.00 | 0.00 | 0.00 | 77 | 1014.3 |
| 20260831213425 | 17 | 210 | 8.0 | 22.5 | 0.00 | 0.00 | 0.00 | 78 | 1014.4 |
| 20260831212931 | 17 | 282 | 6.4 | 20.9 | 0.00 | 0.00 | 0.00 | 78 | 1014.4 |
| 20260831212436 | 17 | 216 | 9.7 | 20.9 | 0.00 | 0.00 | 0.00 | 78 | 1014.3 |
| 20260831211942 | 16 | 279 | 9.7 | 25.7 | 0.00 | 0.00 | 0.00 | 78 | 1014.5 |
| 20260831211423 | 17 | 247 | 12.9 | 25.7 | 0.00 | 0.00 | 0.00 | 78 | 1014.6 |
| 20260831210927 | 17 | 280 | 11.3 | 27.4 | 0.00 | 0.00 | 0.00 | 78 | 1014.6 |
| 20260831210431 | 17 | 257 | 9.7 | 27.4 | 0.00 | 0.00 | 0.00 | 77 | 1014.7 |
| 20260831205937 | 17 | 235 | 12.9 | 19.3 | 0.00 | 0.00 | 0.00 | 77 | 1014.8 |
| 20260831205421 | 17 | 275 | 6.4 | 20.9 | 0.00 | 0.00 | 0.00 | 78 | 1014.7 |
| 20260831204956 | 17 | 282 | 11.3 | 22.5 | 0.00 | 0.00 | 0.00 | 78 | 1014.6 |
| 20260831204419 | 17 | 218 | 11.3 | 22.5 | 0.00 | 0.00 | 0.00 | 78 | 1014.7 |
| 20260831203925 | 17 | 292 | 4.8 | 25.7 | 0.00 | 0.00 | 0.00 | 79 | 1014.6 |
| 20260831203423 | 16 | 242 | 11.3 | 25.7 | 0.00 | 0.00 | 0.00 | 78 | 1014.7 |
| 20260831202957 | 16 | 302 | 4.8 | 20.9 | 0.00 | 0.00 | 0.00 | 79 | 1014.6 |
| 20260831202422 | 16 | 275 | 9.7 | 22.5 | 0.00 | 0.00 | 0.00 | 79 | 1014.6 |
| 20260831201946 | 16 | 290 | 14.5 | 22.5 | 0.00 | 0.00 | 0.00 | 78 | 1014.5 |
| 20260831201429 | 16 | 276 | 9.7 | 19.3 | 0.00 | 0.00 | 0.00 | 79 | 1014.6 |
| 20260831200932 | 16 | 295 | 11.3 | 20.9 | 0.00 | 0.00 | 0.00 | 79 | 1014.6 |
| 20260831200433 | 16 | 232 | 8.0 | 20.9 | 0.00 | 0.00 | 0.00 | 79 | 1014.6 |
| 20260831195935 | 16 | 290 | 11.3 | 25.7 | 0.00 | 0.00 | 0.00 | 79 | 1014.6 |
| 20260831195420 | 16 | 299 | 9.7 | 20.9 | 0.00 | 0.00 | 0.00 | 79 | 1014.5 |
| 20260831194923 | 16 | 283 | 9.7 | 29.0 | 0.00 | 0.00 | 0.00 | 80 | 1014.5 |
| 20260831194429 | 16 | 280 | 11.3 | 29.0 | 0.00 | 0.00 | 0.00 | 79 | 1014.6 |
| 20260831193935 | 16 | 265 | 8.0 | 17.7 | 0.00 | 0.00 | 0.00 | 79 | 1014.7 |
| 20260831193436 | 16 | 247 | 6.4 | 19.3 | 0.00 | 0.00 | 0.00 | 80 | 1014.7 |
| 20260831192935 | 16 | 226 | 6.4 | 22.5 | 0.00 | 0.00 | 0.00 | 80 | 1014.7 |
| 20260831192421 | 16 | 270 | 11.3 | 24.1 | 0.00 | 0.00 | 0.00 | 80 | 1014.8 |
| 20260831191926 | 16 | 225 | 12.9 | 24.1 | 0.00 | 0.00 | 0.00 | 80 | 1014.8 |
| 20260831191433 | 16 | 345 | 6.4 | 17.7 | 0.00 | 0.00 | 0.00 | 80 | 1014.8 |
| 20260831190918 | 16 | 209 | 6.4 | 17.7 | 0.00 | 0.00 | 0.00 | 81 | 1014.7 |
| 20260831190425 | 16 | 62 | 8.0 | 16.1 | 0.00 | 0.00 | 0.00 | 80 | 1014.6 |
| 20260831185941 | 16 | 268 | 8.0 | 17.7 | 0.00 | 0.00 | 0.00 | 81 | 1014.7 |
| 20260831185452 | 16 | 273 | 11.3 | 17.7 | 0.00 | 0.00 | 0.00 | 81 | 1014.8 |
| 20260831184936 | 16 | 222 | 4.8 | 24.1 | 0.00 | 0.00 | 0.00 | 82 | 1014.8 |
| 20260831184441 | 16 | 228 | 9.7 | 24.1 | 0.00 | 0.00 | 0.00 | 81 | 1014.9 |
| 20260831183946 | 16 | 203 | 9.7 | 25.7 | 0.00 | 0.00 | 0.00 | 81 | 1014.9 |
| 20260831183426 | 16 | 232 | 9.7 | 27.4 | 0.00 | 0.00 | 0.00 | 82 | 1014.9 |
| 20260831182929 | 16 | 275 | 4.8 | 20.9 | 0.00 | 0.00 | 0.00 | 82 | 1014.9 |
| 20260831182431 | 16 | 306 | 6.4 | 14.5 | 0.00 | 0.00 | 0.00 | 82 | 1014.8 |
| 20260831181930 | 15 | 268 | 6.4 | 16.1 | 0.00 | 0.00 | 0.00 | 83 | 1014.8 |
| 20260831181437 | 15 | 284 | 8.0 | 19.3 | 0.00 | 0.00 | 0.00 | 83 | 1014.7 |
| 20260831180920 | 15 | 237 | 6.4 | 19.3 | 0.00 | 0.00 | 0.00 | 83 | 1014.8 |
| 20260831180425 | 15 | 259 | 3.2 | 20.9 | 0.00 | 0.00 | 0.00 | 84 | 1014.8 |
| 20260831175930 | 15 | 263 | 8.0 | 14.5 | 0.00 | 0.00 | 0.00 | 84 | 1014.8 |
| 20260831175435 | 15 | 217 | 4.8 | 16.1 | 0.00 | 0.00 | 0.00 | 84 | 1014.8 |
| 20260831174936 | 15 | 213 | 6.4 | 17.7 | 0.00 | 0.00 | 0.00 | 84 | 1014.9 |
| 20260831174437 | 15 | 235 | 6.4 | 17.7 | 0.00 | 0.00 | 0.00 | 85 | 1014.8 |
| 20260831173921 | 15 | 232 | 3.2 | 17.7 | 0.00 | 0.00 | 0.00 | 85 | 1014.7 |
| 20260831173424 | 15 | 218 | 9.7 | 20.9 | 0.00 | 0.00 | 0.00 | 85 | 1014.6 |
| 20260831172928 | 15 | 285 | 9.7 | 22.5 | 0.00 | 0.00 | 0.00 | 85 | 1014.7 |
| 20260831172433 | 15 | 273 | 12.9 | 22.5 | 0.00 | 0.00 | 0.00 | 85 | 1014.7 |
| 20260831171918 | 15 | 230 | 4.8 | 16.1 | 0.00 | 0.00 | 0.00 | 85 | 1014.7 |
| 20260831171418 | 15 | 268 | 3.2 | 16.1 | 0.00 | 0.00 | 0.00 | 85 | 1014.6 |
| 20260831170921 | 15 | 297 | 4.8 | 22.5 | 0.00 | 0.00 | 0.00 | 85 | 1014.6 |
| 20260831170427 | 14 | 335 | 9.7 | 22.5 | 0.00 | 0.00 | 0.00 | 85 | 1014.5 |
| 20260831165935 | 14 | 302 | 6.4 | 24.1 | 0.00 | 0.00 | 0.00 | 85 | 1014.5 |
| 20260831165419 | 14 | 273 | 12.9 | 24.1 | 0.00 | 0.00 | 0.00 | 85 | 1014.5 |
| 20260831164921 | 14 | 222 | 11.3 | 20.9 | 0.00 | 0.00 | 0.00 | 85 | 1014.4 |
| 20260831164423 | 14 | 254 | 12.9 | 19.3 | 0.00 | 0.00 | 0.00 | 85 | 1014.5 |
| 20260831163943 | 14 | 224 | 9.7 | 19.3 | 0.00 | 0.00 | 0.00 | 85 | 1014.4 |
| 20260831163445 | 14 | 239 | 6.4 | 16.1 | 0.00 | 0.00 | 0.00 | 86 | 1014.4 |
| 20260831162930 | 14 | 317 | 6.4 | 20.9 | 0.00 | 0.00 | 0.00 | 86 | 1014.4 |
| 20260831162434 | 14 | 243 | 11.3 | 20.9 | 0.00 | 0.00 | 0.00 | 86 | 1014.3 |
| 20260831161918 | 14 | 282 | 11.3 | 20.9 | 0.00 | 0.00 | 0.00 | 86 | 1014.3 |
| 20260831161424 | 14 | 45 | 6.4 | 16.1 | 0.00 | 0.00 | 0.00 | 86 | 1014.1 |
| 20260831160927 | 14 | 218 | 9.7 | 16.1 | 0.00 | 0.00 | 0.00 | 86 | 1014.0 |
| 20260831160429 | 14 | 284 | 4.8 | 14.5 | 0.00 | 0.00 | 0.00 | 86 | 1014.0 |
| 20260831155935 | 14 | 27 | 3.2 | 20.9 | 0.00 | 0.00 | 0.00 | 86 | 1014.0 |
| 20260831155420 | 14 | 324 | 4.8 | 20.9 | 0.00 | 0.00 | 0.00 | 86 | 1014.0 |
| 20260831154924 | 14 | 188 | 1.6 | 4.8 | 0.00 | 0.00 | 0.00 | 86 | 1014.1 |
| 20260831154427 | 14 | 323 | 3.2 | 12.9 | 0.00 | 0.00 | 0.00 | 86 | 1014.0 |
| 20260831153930 | 14 | 234 | 4.8 | 14.5 | 0.00 | 0.00 | 0.00 | 86 | 1014.1 |
| 20260831153430 | 14 | 123 | 6.4 | 20.9 | 0.00 | 0.00 | 0.00 | 86 | 1014.1 |
| 20260831152935 | 14 | 196 | 9.7 | 20.9 | 0.00 | 0.00 | 0.00 | 86 | 1014.0 |
| 20260831152420 | 14 | 239 | 6.4 | 19.3 | 0.00 | 0.00 | 0.00 | 86 | 1014.0 |
| 20260831151921 | 14 | 278 | 8.0 | 20.9 | 0.00 | 0.00 | 0.00 | 85 | 1014.0 |
| 20260831151425 | 14 | 207 | 8.0 | 20.9 | 0.00 | 0.00 | 0.00 | 85 | 1014.0 |
| 20260831150932 | 14 | 280 | 11.3 | 19.3 | 0.00 | 0.00 | 0.00 | 85 | 1014.0 |
| 20260831150433 | 14 | 263 | 8.0 | 19.3 | 0.00 | 0.00 | 0.00 | 85 | 1014.0 |
| 20260831145932 | 14 | 360 | 4.8 | 14.5 | 0.00 | 0.00 | 0.00 | 85 | 1014.0 |
| 20260831145418 | 14 | 240 | 6.4 | 19.3 | 0.00 | 0.00 | 0.00 | 85 | 1013.9 |
| 20260831144922 | 14 | 196 | 8.0 | 19.3 | 0.00 | 0.00 | 0.00 | 85 | 1013.9 |
| 20260831144454 | 14 | 271 | 4.8 | 17.7 | 0.00 | 0.00 | 0.00 | 85 | 1013.8 |
| 20260831143918 | 14 | 283 | 11.3 | 17.7 | 0.00 | 0.00 | 0.00 | 85 | 1013.7 |
| 20260831143422 | 14 | 214 | 6.4 | 11.3 | 0.00 | 0.00 | 0.00 | 85 | 1013.7 |
| 20260831142926 | 14 | 217 | 4.8 | 9.7 | 0.00 | 0.00 | 0.00 | 85 | 1013.5 |
| 20260831142428 | 14 | 206 | 3.2 | 12.9 | 0.00 | 0.00 | 0.00 | 85 | 1013.6 |
| 20260831141933 | 14 | 268 | 4.8 | 16.1 | 0.00 | 0.00 | 0.00 | 85 | 1013.5 |
| 20260831141418 | 14 | 237 | 6.4 | 16.1 | 0.00 | 0.00 | 0.00 | 85 | 1013.3 |
| 20260831140923 | 14 | 240 | 4.8 | 11.3 | 0.00 | 0.00 | 0.00 | 85 | 1013.2 |
| 20260831140426 | 13 | 139 | 3.2 | 16.1 | 0.00 | 0.00 | 0.00 | 85 | 1013.1 |
| 20260831135931 | 14 | 261 | 6.4 | 16.1 | 0.00 | 0.00 | 0.00 | 85 | 1013.2 |
| 20260831135420 | 14 | 252 | 6.4 | 16.1 | 0.00 | 0.00 | 0.00 | 85 | 1013.1 |
| 20260831134927 | 14 | 254 | 6.4 | 16.1 | 0.00 | 0.00 | 0.00 | 85 | 1013.1 |
| 20260831134428 | 14 | 263 | 8.0 | 20.9 | 0.00 | 0.00 | 0.00 | 85 | 1013.1 |
| 20260831133936 | 14 | 210 | 12.9 | 20.9 | 0.00 | 0.00 | 0.00 | 84 | 1013.0 |
| 20260831133418 | 14 | 261 | 3.2 | 17.7 | 0.00 | 0.00 | 0.00 | 84 | 1013.0 |
| 20260831132925 | 14 | 280 | 8.0 | 19.3 | 0.00 | 0.00 | 0.00 | 84 | 1012.9 |
| 20260831132457 | 14 | 254 | 9.7 | 19.3 | 0.00 | 0.00 | 0.00 | 84 | 1012.9 |
| 20260831131923 | 14 | 250 | 9.7 | 20.9 | 0.00 | 0.00 | 0.00 | 84 | 1013.1 |
| 20260831131427 | 14 | 216 | 9.7 | 20.9 | 0.00 | 0.00 | 0.00 | 84 | 1013.1 |
| 20260831130928 | 14 | 273 | 6.4 | 19.3 | 0.00 | 0.00 | 0.00 | 84 | 1012.9 |
| 20260831130432 | 14 | 216 | 4.8 | 19.3 | 0.00 | 0.00 | 0.00 | 84 | 1012.9 |
| 20260831125925 | 14 | 275 | 6.4 | 19.3 | 0.00 | 0.00 | 0.00 | 84 | 1012.9 |